STARLINK-1477, 45754

Orbit data source: Space-Track

STARLINK-1477, 45754 is a payload satellite owned by SpaceX/Seattle (US) in LEO that was launched on Sat, 13 Jun 2020 UTC via an FALCON 9 launch vehicle from the Air Force Eastern Test Range (AFETR). Payload-class satellites include a variety of spacecraft equipped with specific instruments for various scientific and technological missions. These include communications satellites like Starlink; space stations such as the ISS; scientific satellites like the Hubble; Earth observation satellites from companies like Planet Labs, Umbra, and HawkEye 360; GPS; miniature CubeSats for education and research; and military/defense satellites.

Loading next visibility...
Identifier
45754, 2020-038AA
Orbit
LEO
Country
Flag of USUS
Related business
Manufacturer
SpaceX/Seattle
Mission
Operational Commercial Communications
Bus & Motor
STARLINK, Unknown motor
Mass
260 kg wet, ~248 kg dry
Launch date (UTC)
2020-06-13 (5 years ago)
Launch vehicle
FALCON 9
Launch site
Air Force Eastern Test Range (AFETR)
Object type
Payload
Rocket body
Debris
Shape & HBR
Box + 1 Pan, 4.4 m
Radar Cross Section
13.562 m², Large (>1 m²)

Expand to show TLE details & history
Last TLE update: 1 day ago

TLE from 1 day ago
0 STARLINK-1477
1 45754U 20038AA  25260.01703883 -.00000790  00000-0 -34171-4 0  9991
2 45754  53.0528 276.2661 0001210  86.2774 273.8353 15.06392177290304
Epoch: 2025-09-17T00:24Z
TLE epoch observation values (Epoch: 2025-09-17T00:24:32.154Z)
Latitude
-0.00007°
Longitude
-86.06696°
Altitude
548.059 km
Speed
7.589 km/s
True Right ascension
18h 25m 03s
True Declination
0° 00' 00"
Sunlit
Object was in daylight at epoch
Visualization orbit readout
Latitude
Unknown
Longitude
Unknown
Altitude
Unknown
Speed
Unknown
Apparent Right ascension
Unknown
Apparent Declination
Unknown
Sunlit
N/A
Visualization observer readout
Local Sidereal Time
23:08:24
Azimuth
Unknown
Elevation
Unknown
Doppler factor
Unknown
Orbital elements
Apogee altitude
548.345 km
Perigee altitude
546.669 km
Semi-major axis
6,925.644 km
Eccentricity
0.00012
Inclination
53.0528°
RAAN
276.2661°
Arg. of periapsis
86.2774°
True anomaly
273.82147°
Mean anomaly
273.8353°
Eccentric anomaly
273.82838°
Mean motion
3.76576 °/min
Orbital period
95.6 mins
BSTAR
-0.000034171
Loading maneuver chart data...
Computing Atmospheric mass density...

Documentation

Showing up to 5 results
|